Temp
15 16 16 16 16 16 16 16 16 16 16 16 16 16 16 16 16 16 17 16 17 17 17 18 18 18 18 18 17 17 11 11 12 12 13 12 10 9 8 8 7 6 6 5 6
15 16 16 16 16 16 16 16 16 16 16 16 16 16 16 15 15 16 16 17 17 17 17 18 18 18 18 17 17 14 11 12 12 12 11 10 11 9 8 6 4 4 4 5 6
15 15 16 16 16 16 16 16 16 16 16 16 16 16 15 16 15 15 16 16 17 17 17 18 17 18 17 16 15 13 12 12 12 13 13 10 8 8 8 7 5 5 4 5 6
15 15 16 16 16 16 16 16 16 16 16 16 16 16 15 16 16 15 16 16 17 17 17 17 17 17 14 14 14 13 12 13 12 12 12 9 8 4 5 3 5 5 5 5 6
14 15 15 15 16 16 16 16 16 16 16 16 16 15 15 15 15 15 16 16 16 16 17 17 17 16 14 14 14 12 11 11 11 12 10 9 6 4 1 2 4 4 4 5 5
14 14 14 15 15 15 16 16 16 16 16 16 16 15 15 14 15 15 15 16 16 16 16 16 16 16 15 13 13 11 11 10 11 10 9 6 4 7 1 2 3 3 4 4 4
15 14 14 15 15 15 16 16 16 16 16 16 15 15 14 15 14 14 15 15 15 15 15 15 15 16 15 12 12 12 11 11 10 10 9 9 6 5 3 2 2 3 3 3 2
14 14 15 14 15 15 16 16 16 16 16 15 15 14 15 14 14 14 14 14 14 14 15 15 15 15 14 13 12 11 10 11 11 10 9 10 11 1 2 2 1 1 1 1 1
13 13 14 14 15 15 15 15 15 15 15 15 14 14 14 14 13 14 14 14 14 14 14 14 15 13 13 9 9 8 10 10 12 10 8 9 10 1 1 2 0 -0 0 1 1
13 13 13 14 15 15 15 15 15 15 14 14 13 13 13 13 13 13 14 14 14 14 14 14 14 8 7 8 10 10 10 10 11 9 9 8 7 1 1 1 0 -0 -0 0 1
12 13 13 14 14 15 15 15 14 14 13 15 14 14 13 13 13 12 13 13 13 14 11 11 9 9 9 9 11 9 10 12 11 9 10 7 7 1 1 1 -0 -1 -1 -0 -0
11 12 13 13 14 14 14 14 14 13 13 13 13 12 12 12 12 12 12 13 12 11 10 9 9 10 10 9 11 12 12 11 11 9 9 8 7 3 1 1 0 -0 -1 -0 -1
11 11 12 12 13 13 14 14 13 13 11 12 11 11 12 12 12 11 12 12 11 10 9 9 12 10 11 10 11 11 10 11 11 10 9 9 7 2 1 1 0 0 1 -0 0
11 11 11 11 12 13 13 13 13 12 7 10 10 10 11 11 11 11 11 12 11 10 8 10 11 11 11 11 10 12 10 11 10 9 9 8 8 4 1 -1 -2 -1 -1 -0 -0
11 11 11 11 11 12 13 13 13 12 7 11 9 10 10 10 10 10 11 11 10 10 9 10 9 10 11 11 10 10 9 9 9 7 7 8 7 7 0 -0 -2 -3 -2 -1 -0
10 11 11 11 10 11 12 12 12 7 8 11 9 9 9 10 10 10 10 11 11 10 10 10 9 10 10 8 9 7 8 5 4 5 5 7 7 8 1 2 -1 -3 -2 -1 -1
9 9 10 10 10 10 11 11 7 6 11 11 8 8 9 8 9 9 9 8 8 8 9 9 9 8 9 8 9 8 8 7 7 5 7 6 5 7 4 1 -0 -3 -3 -1 -1
9 9 9 10 10 10 9 8 9 9 9 9 9 8 9 8 9 8 8 8 7 8 5 7 9 7 8 9 8 7 8 7 11 7 8 5 5 7 -1 -1 -1 -1 -1 -1 -2
9 9 8 9 9 10 9 5 7 8 10 8 9 9 8 9 9 8 6 6 7 6 10 7 9 6 7 7 8 7 7 7 7 4 4 6 5 -0 -2 -3 -3 -3 -3 -2 -2
7 8 7 7 8 8 5 8 7 9 8 9 10 9 9 8 8 7 6 7 8 5 8 8 10 6 6 7 6 6 6 6 5 8 7 6 5 7 -1 -2 -4 -4 -4 -3 -3
7 6 6 5 4 6 6 4 8 11 11 9 8 9 8 7 6 6 8 8 7 4 7 5 8 6 6 5 5 5 5 5 5 5 6 6 6 2 2 -1 -3 -4 -4 -3 -3
6 5 4 3 3 2 4 5 10 9 9 8 9 8 7 6 6 6 7 7 7 6 6 5 5 4 5 4 4 5 5 5 6 7 2 3 5 -3 -3 -2 -3 -4 -4 -3 -3
6 5 3 2 2 2 4 6 7 8 7 7 7 7 7 7 9 6 6 5 6 5 5 4 5 4 7 5 3 3 3 3 2 2 2 4 7 -4 -5 -4 -3 -4 -4 -4 -4
5 4 1 1 0 1 5 6 6 7 7 7 7 7 7 7 6 9 6 4 4 5 6 7 4 6 10 9 3 3 3 2 4 0 5 7 9 -2 -5 -6 -6 -5 -4 -4 -5
4 4 3 2 1 1 1 1 4 5 4 6 6 6 7 7 7 6 3 3 3 4 4 5 4 3 4 5 4 5 4 2 4 6 6 9 6 -1 -3 -6 -6 -5 -5 -6 -6
4 4 3 2 2 2 1 2 3 4 3 3 4 5 4 4 5 6 4 4 5 2 3 2 5 3 5 3 3 3 3 2 4 5 5 5 2 -8 -9 -5 -7 -6 -6 -6 -6
4 3 3 2 1 2 2 2 3 3 3 3 3 4 2 3 2 1 1 -0 0 2 2 2 3 2 3 1 3 4 1 3 5 2 5 5 0 -12 -9 -7 -8 -6 -6 -6 -6
Height
1545 1544 1543 1541 1539 1538 1536 1535 1532 1531 1531 1529 1528 1528 1527 1526 1526 1525 1526 1525 1524 1523 1523 1523 1524 1524 1524 1524 1525 1525 1540 1552 1548 1551 1548 1549 1551 1556 1558 1559 1562 1565 1567 1570 1572
1546 1545 1543 1542 1540 1538 1536 1535 1533 1531 1530 1529 1528 1528 1527 1528 1526 1526 1527 1524 1524 1523 1523 1523 1524 1524 1525 1526 1526 1527 1541 1541 1538 1539 1543 1547 1548 1554 1559 1561 1566 1567 1569 1570 1572
1546 1545 1543 1541 1540 1538 1536 1534 1533 1531 1530 1529 1528 1528 1528 1528 1527 1525 1525 1525 1524 1524 1523 1523 1524 1525 1526 1527 1529 1530 1537 1536 1538 1538 1540 1545 1550 1554 1557 1562 1564 1565 1567 1570 1572
1545 1544 1543 1541 1539 1538 1536 1534 1532 1530 1529 1529 1528 1527 1528 1527 1530 1525 1525 1524 1524 1524 1523 1523 1524 1525 1527 1529 1530 1534 1536 1536 1538 1540 1542 1546 1550 1555 1558 1562 1562 1564 1567 1569 1571
1544 1543 1542 1541 1539 1538 1535 1534 1532 1531 1529 1528 1527 1527 1527 1527 1526 1525 1524 1524 1524 1524 1523 1523 1524 1525 1529 1530 1532 1534 1537 1538 1539 1540 1542 1546 1551 1554 1562 1563 1565 1566 1567 1569 1571
1545 1543 1540 1539 1538 1537 1535 1533 1532 1530 1529 1527 1526 1526 1527 1528 1525 1524 1524 1523 1523 1523 1523 1523 1524 1525 1528 1531 1533 1537 1538 1541 1542 1543 1544 1548 1555 1555 1566 1564 1565 1566 1568 1570 1571
1545 1542 1540 1538 1536 1535 1534 1532 1531 1529 1528 1527 1526 1525 1525 1526 1524 1524 1523 1523 1523 1523 1523 1524 1525 1526 1529 1532 1536 1538 1541 1542 1544 1544 1546 1547 1557 1557 1559 1563 1565 1567 1568 1569 1570
1545 1543 1540 1538 1535 1534 1532 1531 1529 1528 1527 1526 1525 1525 1524 1523 1523 1523 1523 1523 1522 1523 1524 1524 1525 1527 1529 1534 1537 1541 1544 1548 1542 1543 1546 1548 1550 1558 1559 1561 1564 1566 1568 1568 1569
1543 1542 1541 1538 1535 1532 1530 1529 1527 1526 1525 1525 1525 1525 1522 1522 1522 1522 1522 1522 1522 1523 1524 1525 1526 1529 1533 1538 1547 1549 1551 1548 1542 1542 1544 1548 1546 1557 1559 1561 1563 1565 1566 1568 1569
1544 1541 1539 1537 1535 1532 1530 1527 1526 1525 1524 1523 1523 1526 1522 1521 1521 1521 1521 1521 1522 1523 1525 1526 1527 1532 1537 1542 1552 1546 1548 1546 1543 1542 1543 1546 1549 1555 1557 1559 1560 1562 1565 1566 1568
1542 1541 1538 1536 1533 1532 1530 1528 1528 1525 1522 1520 1520 1519 1518 1519 1520 1520 1520 1521 1521 1522 1526 1526 1533 1537 1533 1534 1534 1539 1541 1539 1538 1539 1541 1544 1544 1551 1554 1558 1559 1560 1562 1564 1566
1539 1539 1538 1535 1533 1531 1529 1528 1527 1526 1519 1516 1516 1516 1517 1517 1519 1519 1521 1521 1520 1524 1525 1531 1534 1526 1527 1532 1533 1535 1537 1538 1537 1539 1542 1543 1541 1545 1549 1549 1551 1554 1558 1560 1563
1539 1536 1536 1535 1531 1530 1528 1525 1525 1525 1521 1514 1513 1514 1515 1517 1516 1517 1519 1519 1519 1523 1525 1529 1524 1523 1525 1530 1534 1535 1538 1538 1538 1539 1542 1542 1540 1545 1547 1548 1550 1552 1555 1557 1559
1538 1536 1534 1532 1534 1528 1527 1524 1523 1524 1531 1515 1513 1512 1513 1515 1516 1515 1516 1518 1518 1522 1525 1524 1522 1523 1526 1528 1532 1533 1533 1533 1537 1542 1548 1543 1546 1540 1543 1545 1545 1546 1548 1551 1555
1536 1535 1534 1532 1531 1529 1528 1525 1523 1524 1555 1513 1512 1512 1513 1515 1515 1514 1515 1516 1517 1519 1523 1523 1523 1524 1525 1525 1528 1531 1532 1534 1539 1546 1549 1545 1551 1522 1543 1540 1535 1538 1542 1547 1550
1534 1533 1532 1532 1531 1529 1527 1526 1525 1539 1547 1510 1509 1510 1513 1513 1513 1513 1514 1514 1516 1518 1520 1521 1521 1522 1523 1527 1527 1531 1535 1543 1549 1552 1561 1541 1542 1521 1535 1521 1523 1530 1536 1541 1547
1532 1531 1529 1529 1531 1529 1528 1528 1539 1546 1511 1510 1511 1510 1510 1512 1512 1511 1513 1514 1517 1528 1524 1522 1521 1521 1522 1528 1529 1530 1537 1551 1553 1562 1544 1542 1546 1516 1513 1517 1517 1521 1529 1537 1543
1527 1528 1527 1527 1527 1528 1529 1530 1531 1511 1505 1501 1507 1511 1510 1507 1508 1509 1511 1513 1510 1512 1528 1527 1527 1520 1519 1520 1523 1531 1532 1542 1533 1546 1535 1544 1535 1506 1516 1517 1517 1519 1525 1533 1540
1522 1521 1522 1523 1523 1525 1529 1537 1518 1507 1494 1498 1502 1508 1509 1504 1506 1508 1512 1508 1499 1501 1509 1521 1515 1517 1518 1519 1519 1529 1532 1527 1537 1550 1552 1527 1516 1514 1517 1518 1518 1521 1526 1531 1537
1519 1514 1516 1517 1518 1520 1524 1512 1505 1494 1491 1493 1496 1494 1501 1505 1507 1509 1505 1491 1491 1492 1493 1500 1510 1518 1519 1520 1521 1523 1523 1534 1540 1531 1533 1524 1521 1500 1516 1515 1519 1520 1523 1529 1537
1515 1512 1511 1511 1515 1520 1511 1508 1496 1489 1491 1491 1489 1492 1492 1494 1499 1504 1495 1486 1486 1493 1494 1498 1501 1521 1519 1519 1517 1525 1525 1527 1528 1531 1529 1526 1505 1498 1500 1506 1510 1515 1520 1526 1534
1511 1513 1508 1511 1517 1516 1507 1497 1491 1484 1484 1483 1483 1481 1486 1488 1492 1492 1487 1483 1481 1485 1495 1496 1505 1520 1510 1510 1511 1512 1512 1514 1520 1518 1534 1533 1500 1503 1505 1505 1508 1514 1519 1525 1531
1505 1505 1506 1508 1511 1508 1500 1492 1488 1484 1482 1480 1479 1476 1475 1479 1483 1481 1477 1476 1477 1480 1484 1489 1501 1517 1503 1511 1511 1511 1508 1509 1515 1520 1525 1523 1487 1504 1505 1506 1508 1512 1516 1522 1528
1504 1500 1504 1506 1505 1504 1496 1490 1488 1483 1481 1480 1477 1477 1475 1474 1473 1467 1474 1477 1477 1478 1480 1482 1490 1482 1475 1476 1491 1503 1499 1502 1501 1526 1503 1483 1476 1506 1506 1506 1508 1512 1516 1522 1527
1498 1492 1496 1497 1496 1497 1499 1494 1487 1483 1482 1479 1475 1472 1473 1471 1469 1470 1475 1478 1478 1478 1480 1482 1487 1488 1484 1483 1486 1484 1486 1494 1494 1484 1489 1468 1479 1491 1492 1497 1501 1508 1515 1519 1524
1495 1496 1491 1495 1492 1489 1489 1489 1486 1480 1481 1476 1476 1472 1472 1474 1469 1469 1474 1477 1473 1481 1480 1483 1482 1486 1482 1488 1490 1490 1486 1488 1484 1481 1482 1480 1484 1491 1493 1497 1502 1507 1514 1519 1523
1489 1489 1492 1489 1492 1489 1484 1479 1482 1478 1473 1471 1471 1471 1471 1468 1468 1470 1473 1476 1479 1481 1481 1484 1482 1489 1488 1492 1486 1481 1477 1471 1467 1472 1468 1474 1475 1489 1496 1498 1502 1508 1513 1516 1519
Wind_Speed
7 7 8 8 8 8 9 9 8 7 7 5 5 4 3 2 3 2 3 3 2 3 3 2 2 3 3 4 4 3 5 3 6 7 5 9 5 4 7 11 6 5 8 12 10
6 7 8 9 9 9 10 9 8 7 6 6 5 4 3 3 4 2 3 2 2 2 3 2 2 2 2 3 3 5 4 8 5 6 6 8 6 9 6 8 8 13 14 13 10
6 7 8 9 9 10 10 10 9 7 7 7 5 5 5 7 4 2 3 2 2 1 2 2 2 3 3 3 4 3 4 4 2 4 18 12 7 5 14 3 6 12 16 13 10
7 8 9 9 10 11 10 11 10 9 8 7 6 5 6 5 2 3 4 3 2 1 0 1 1 2 3 3 3 5 4 3 6 10 9 7 13 8 6 4 10 17 15 13 12
6 6 8 10 11 11 11 10 9 8 7 6 6 5 4 4 4 5 5 4 3 2 0 1 1 3 4 3 2 4 3 6 7 11 15 15 7 10 12 14 15 15 14 13 11
9 9 8 9 10 12 11 10 9 9 8 7 6 5 4 2 6 7 6 4 3 3 1 2 2 5 7 4 4 3 10 10 5 8 9 9 6 2 10 15 16 15 14 13 11
11 9 9 9 9 11 11 11 10 10 9 8 6 5 6 7 6 7 5 4 2 1 1 3 4 3 5 5 7 6 4 2 3 5 4 14 3 2 22 19 17 15 14 14 13
13 13 11 10 9 10 11 11 10 9 8 7 5 5 4 6 6 5 4 3 1 1 2 4 6 6 4 11 5 4 4 2 2 6 3 2 5 4 24 22 18 16 15 14 13
12 13 14 13 11 10 10 10 10 8 7 6 6 5 4 4 4 4 2 1 2 3 4 5 5 5 6 5 4 5 3 4 2 7 4 4 3 9 23 21 19 18 16 15 14
16 13 13 14 14 12 10 9 9 8 7 6 8 5 5 3 4 4 3 2 3 6 6 4 3 4 3 3 5 6 4 4 4 6 4 4 2 9 24 23 23 21 19 16 14
15 17 15 14 14 14 11 8 7 5 7 6 4 4 4 4 5 4 3 4 5 4 3 2 4 6 10 7 2 5 4 3 3 4 4 7 3 11 22 19 21 24 23 20 16
14 15 16 15 15 14 11 6 7 5 8 12 13 12 9 6 4 5 5 6 4 4 4 5 6 5 4 5 3 3 2 3 2 3 4 2 8 6 20 18 26 30 27 24 20
16 14 15 17 15 13 9 6 6 6 4 4 8 5 5 7 4 6 6 5 3 5 5 6 2 5 4 4 5 3 4 4 3 2 2 2 6 3 4 5 20 26 26 25 23
18 16 14 14 14 8 7 4 3 4 4 4 3 3 5 4 3 5 7 4 1 8 7 4 1 4 3 3 5 2 2 2 4 3 3 1 5 5 5 5 13 25 29 29 25
18 18 16 13 12 11 7 4 1 2 4 1 3 4 5 5 4 3 5 4 5 5 5 4 5 4 3 3 5 4 3 4 2 4 2 2 1 3 3 8 13 21 31 30 27
18 17 18 15 13 12 7 4 2 6 7 3 4 5 3 3 3 5 3 4 4 4 2 1 0 1 3 2 2 7 5 6 4 2 2 6 6 5 6 6 4 18 31 32 28
20 18 15 15 12 9 6 5 4 5 2 3 4 4 4 6 4 5 5 4 6 4 4 0 2 1 3 5 3 3 5 2 3 2 6 3 2 9 4 3 5 18 30 33 29
22 22 18 14 13 12 8 3 6 6 7 4 3 1 5 7 4 5 5 4 4 4 3 6 5 8 4 4 6 6 6 5 6 4 3 3 7 6 2 2 3 19 32 33 29
22 25 24 18 15 13 8 4 8 8 5 9 5 4 4 4 5 5 7 6 9 12 10 6 5 1 0 1 3 5 5 2 5 3 2 5 6 1 1 2 8 18 27 33 30
23 20 27 21 15 15 3 11 6 5 5 4 10 8 8 5 5 6 8 5 5 10 2 6 2 0 2 1 1 3 3 3 1 4 5 5 5 6 5 8 8 13 24 33 28
21 7 10 13 15 8 7 8 7 14 9 8 10 6 6 9 9 6 5 3 4 5 3 5 3 1 3 8 9 3 3 1 2 4 5 3 6 2 3 10 14 18 25 34 30
16 2 8 13 5 6 8 5 5 6 14 7 3 8 10 9 8 8 9 7 13 15 9 6 5 5 7 1 1 2 7 7 5 6 2 2 7 2 1 5 17 19 25 30 27
6 7 11 21 4 5 6 5 5 3 5 6 7 8 5 9 4 9 8 1 16 10 10 9 4 1 4 1 2 6 6 4 4 3 7 5 5 1 2 6 16 25 27 29 24
7 2 4 14 8 4 6 9 9 4 6 4 2 2 1 5 5 5 7 1 6 6 2 6 4 7 10 5 6 6 7 6 6 4 5 12 11 5 6 8 13 22 27 27 21
6 2 4 3 6 9 2 3 6 9 4 4 4 6 5 5 2 5 2 2 1 4 3 4 7 4 2 1 2 4 5 11 13 13 10 5 12 5 11 13 22 25 27 23 18
7 4 2 5 6 5 7 3 8 7 4 6 13 6 3 5 2 2 2 1 1 2 5 1 2 2 1 4 2 5 8 8 15 10 12 15 14 2 1 15 20 26 25 20 14
14 12 4 4 1 2 4 6 5 4 9 15 6 9 11 10 12 6 4 3 1 1 3 2 3 3 4 3 5 10 9 20 12 6 11 13 5 6 4 10 21 25 22 18 13
Wind_Direction
4 4 2 2 0 359 355 353 354 348 339 341 339 327 322 357 5 346 340 10 12 3 19 29 14 39 62 71 63 100 68 151 180 159 168 150 120 88 102 119 81 94 139 151 167
358 354 353 353 353 353 354 352 351 347 334 330 324 318 309 300 322 13 331 339 4 12 9 12 31 44 63 58 32 71 102 197 174 165 154 141 128 132 138 110 80 108 130 148 161
348 342 343 347 347 348 346 346 346 351 339 322 308 297 282 303 304 295 328 325 323 15 27 37 46 53 69 46 22 72 144 157 18 171 153 132 103 112 132 75 159 166 145 150 157
341 335 335 336 338 340 343 345 344 347 338 318 304 294 285 294 281 313 308 300 284 322 45 63 42 63 60 65 41 88 64 111 126 132 129 117 129 87 63 115 146 151 150 154 162
331 330 330 330 334 336 338 338 336 335 331 318 304 292 288 290 276 306 306 299 278 273 244 172 109 111 106 83 65 76 122 80 125 132 119 129 85 126 106 128 140 144 148 150 146
329 327 329 329 330 331 331 331 329 327 323 321 306 291 281 286 281 294 291 290 289 262 228 157 124 116 104 69 61 86 102 115 114 120 126 114 136 41 155 149 145 148 143 137 138
320 318 321 322 324 326 327 325 322 320 318 317 306 293 281 269 284 297 280 272 277 266 179 137 137 102 112 93 110 119 78 91 131 149 139 132 127 150 164 166 153 151 146 144 142
319 316 313 313 317 321 323 320 317 313 312 306 294 291 273 275 270 285 287 263 276 169 149 130 126 107 76 116 49 64 55 122 200 158 152 146 248 152 168 170 160 157 153 152 145
315 314 313 312 312 315 317 315 311 306 296 291 280 278 262 264 254 271 272 223 155 139 134 129 131 92 115 88 32 10 209 206 259 200 138 191 227 165 177 181 168 168 165 161 155
313 314 312 311 311 311 309 307 298 291 271 272 254 274 247 236 245 259 261 198 152 144 128 143 98 77 49 97 216 199 209 232 225 207 160 171 207 167 186 191 182 177 174 172 165
313 313 314 310 311 308 305 311 287 268 237 228 218 241 235 243 259 256 233 186 154 151 141 66 100 200 207 186 139 143 180 210 222 176 147 220 221 194 190 194 187 185 182 180 175
310 310 311 312 310 310 304 309 292 283 297 247 245 244 248 243 244 225 205 187 171 166 125 37 232 217 150 164 170 175 171 250 280 136 168 176 258 179 187 209 196 190 190 186 182
307 308 309 310 307 304 297 299 301 314 280 260 231 233 223 217 230 204 193 178 149 143 176 163 233 132 140 143 159 197 183 195 212 97 184 351 270 166 186 192 206 209 204 194 192
305 304 305 307 302 291 285 293 312 336 39 261 216 233 189 188 247 194 186 181 140 189 162 224 186 155 145 179 138 223 204 129 143 107 227 96 278 250 198 202 200 196 201 197 192
307 305 301 300 291 292 286 286 290 30 356 190 174 170 183 192 148 188 175 175 169 167 116 247 166 162 161 194 172 203 84 93 69 102 56 235 65 229 128 242 213 201 199 197 194
307 305 301 296 288 277 264 240 171 52 259 216 159 169 152 214 191 150 172 145 120 110 42 198 147 151 167 93 91 149 80 48 61 75 318 213 167 266 193 210 163 187 197 195 192
299 298 294 289 282 279 232 198 42 150 301 239 224 174 192 192 209 183 171 175 160 119 213 159 213 167 156 94 32 93 87 325 341 3 230 147 160 251 192 184 198 181 187 193 191
290 287 286 277 271 255 215 30 200 231 207 132 102 70 203 166 217 183 148 212 228 110 126 165 286 175 180 195 177 178 167 171 226 207 248 102 230 255 74 284 254 196 188 189 187
287 287 279 276 254 232 208 223 210 203 190 151 124 183 244 231 176 161 210 216 202 176 177 157 259 80 125 149 136 188 195 174 106 64 53 228 288 282 107 25 146 160 178 186 188
289 284 282 262 234 206 180 229 238 239 137 145 185 170 193 196 183 184 186 206 215 193 178 196 144 227 121 82 8 177 164 86 7 213 248 269 272 248 220 201 169 169 176 186 188
284 268 262 241 203 221 222 223 248 245 205 175 200 195 214 175 183 206 228 262 183 152 149 142 128 167 124 202 179 151 202 85 139 170 203 279 250 200 220 182 184 183 183 187 186
254 265 226 182 148 210 247 206 235 242 218 250 216 198 187 189 193 206 211 225 170 147 166 199 138 180 194 147 69 220 200 169 157 213 221 155 262 73 294 191 171 173 183 187 188
232 220 211 181 200 218 263 264 263 273 230 203 229 208 186 189 214 199 197 331 169 167 163 181 204 94 322 353 6 217 194 163 108 84 191 167 259 96 353 160 179 174 182 180 183
251 159 171 191 243 281 252 255 255 280 282 248 245 329 192 220 250 222 207 143 189 194 181 150 182 188 213 180 129 193 189 181 156 143 185 229 265 220 219 187 176 182 181 179 185
244 188 193 200 222 213 315 308 264 235 260 322 254 205 235 236 222 227 104 108 40 189 127 171 220 184 265 28 195 206 173 181 203 215 204 218 234 225 196 194 184 181 175 176 185
230 230 190 282 272 216 172 235 246 238 206 233 238 192 133 224 212 60 104 226 226 42 160 115 194 123 271 63 255 265 237 204 217 232 255 264 267 177 105 166 170 174 174 179 187
232 207 216 199 271 235 214 188 254 293 235 235 280 237 234 235 216 182 175 158 102 149 147 172 133 73 249 352 10 295 201 211 214 197 219 232 235 161 148 154 162 171 179 182 193